FW6374 Jacksonville FL US current weather conditions

sailwx.info

Wind from 269 at 2 knots gusting 6

Air temperature 28.3° C
Dewpoint 15.6° C

Last reported at 2020-Oct-01 16:07 UTC.
Time now 2020-Oct-01 17:02 UTC

Location: N 30°19' W 081°42'.
View on Google Maps.

See reports from other nearby stations

  
Tides and Currents Weather Stations Pressure Air Temp Water Temp Dewpoint Dewpoint Depression Visibility Wind Speed Wind Dir Waves Ship Positions
date/time (UTC)wind fromknots sea level pressurealtimeterstation pressurevisibilityair tempwater tempwave heightnotes
2020-Oct-01 16:07 269 2 gusting 6 28.3
2020-Oct-01 16:02 012 3 gusting 6 28.3
2020-Oct-01 15:57 344 3 gusting 6 28.3
2020-Oct-01 15:52 051 2 gusting 7 28.3
2020-Oct-01 15:47 021 2 gusting 7 27.8
2020-Oct-01 15:42 27.8
2020-Oct-01 15:37 001 2 gusting 7 27.8
2020-Oct-01 15:32 075 2 gusting 6 27.2
2020-Oct-01 15:27 27.2
2020-Oct-01 15:23 055 2 gusting 8 27.2
2020-Oct-01 15:19 081 1 gusting 8 26.7
2020-Oct-01 15:11 030 2 gusting 6 26.7
2020-Oct-01 15:02 033 1 gusting 6 26.7
2020-Oct-01 14:57 334 1 gusting 5 26.1
2020-Oct-01 14:52 030 1 gusting 5 26.1
2020-Oct-01 14:47 073 2 gusting 5 26.1
2020-Oct-01 14:42 311 2 gusting 5 25.6
2020-Oct-01 14:37 035 1 gusting 5 25.6
2020-Oct-01 14:32 356 1 gusting 5 25.6
2020-Oct-01 14:27 003 1 gusting 5 25.0
2020-Oct-01 14:22 067 1 gusting 5 24.4
2020-Oct-01 14:17 24.4
2020-Oct-01 14:12 333 1 gusting 3 23.9
2020-Oct-01 14:07 050 1 gusting 3 23.9
2020-Oct-01 14:02 324 1 23.9
2020-Oct-01 13:57 23.9
2020-Oct-01 13:52 008 0 gusting 3 23.3
2020-Oct-01 13:47 081 0 gusting 3 23.3
2020-Oct-01 13:42 22.8
2020-Oct-01 13:37 22.2
2020-Oct-01 13:32 042 0 gusting 3 22.2
2020-Oct-01 13:27 21.7
2020-Oct-01 13:22 347 0 gusting 3 21.7
2020-Oct-01 13:17 357 1 gusting 4 21.7
2020-Oct-01 13:12 301 1 gusting 4 21.1
2020-Oct-01 13:07 20.6
2020-Oct-01 13:02 20.6
2020-Oct-01 12:57 069 1 gusting 4 20.0
2020-Oct-01 12:52 321 1 gusting 4 19.4
2020-Oct-01 12:47 349 1 gusting 3 19.4
2020-Oct-01 12:42 318 0 gusting 3 18.9
2020-Oct-01 12:37 278 0 gusting 3 18.3
2020-Oct-01 12:32 310 0 gusting 2 17.8
2020-Oct-01 12:27 284 0 gusting 2 17.2
2020-Oct-01 12:22 16.7
2020-Oct-01 12:17 262 0 gusting 2 16.7
2020-Oct-01 12:12 316 0 gusting 2 16.1
2020-Oct-01 12:07 313 0 gusting 2 15.6
2020-Oct-01 12:02 007 0 gusting 2 15.6
2020-Oct-01 11:57 297 0 gusting 3 15.0
2020-Oct-01 11:52 320 0 gusting 3 15.0
2020-Oct-01 11:47 15.0
2020-Oct-01 11:42 338 14.4
2020-Oct-01 11:37 342 14.4
2020-Oct-01 11:32 15.0
2020-Oct-01 11:27 15.0
2020-Oct-01 11:22 14.4
2020-Oct-01 11:17 14.4
2020-Oct-01 11:12 15.0
2020-Oct-01 11:07 355 0 gusting 2 15.0
2020-Oct-01 11:02 058 0 gusting 2 14.4
2020-Oct-01 10:57 010 15.0
2020-Oct-01 10:52 15.0
2020-Oct-01 10:47 269 0 gusting 3 15.0
2020-Oct-01 10:42 15.0
2020-Oct-01 10:37 012 0 gusting 2 15.0
2020-Oct-01 10:32 331 0 gusting 2 15.0
2020-Oct-01 10:27 15.0
2020-Oct-01 10:22 15.0
2020-Oct-01 10:17 15.0
2020-Oct-01 10:12 063 0 gusting 2 15.0
2020-Oct-01 10:07 15.0
2020-Oct-01 10:02 287 15.0
2020-Oct-01 09:57 332 15.0
2020-Oct-01 09:52 15.0
2020-Oct-01 09:47 285 15.0
2020-Oct-01 09:42 329 15.0
2020-Oct-01 09:37 15.0
2020-Oct-01 09:32 295 15.0
2020-Oct-01 09:27 285 15.0
2020-Oct-01 09:22 15.0
2020-Oct-01 09:17 15.0
2020-Oct-01 09:12 15.0
2020-Oct-01 09:07 15.6
2020-Oct-01 09:02 15.0
2020-Oct-01 08:57 15.0
2020-Oct-01 08:52 15.6
2020-Oct-01 08:47 15.6
2020-Oct-01 08:42 15.6
2020-Oct-01 08:37 15.6
2020-Oct-01 08:32 15.6
2020-Oct-01 08:27 15.6
2020-Oct-01 08:22 15.6
2020-Oct-01 08:17 15.6
2020-Oct-01 08:12 15.6
2020-Oct-01 08:07 15.6
2020-Oct-01 08:02 15.6
2020-Oct-01 07:57 15.6
2020-Oct-01 07:52 16.1
2020-Oct-01 07:47 16.1
2020-Oct-01 07:42 15.6
2020-Oct-01 07:37 16.1
2020-Oct-01 07:32 338 16.1
2020-Oct-01 07:27 16.1
2020-Oct-01 07:22 16.1
2020-Oct-01 07:17 16.1
2020-Oct-01 07:12 16.1
2020-Oct-01 07:07 357 16.1
2020-Oct-01 07:02 16.1
2020-Oct-01 06:57 089 16.1
2020-Oct-01 06:52 16.1
2020-Oct-01 06:47 16.1
2020-Oct-01 06:42 16.7
2020-Oct-01 06:37 16.1
2020-Oct-01 06:32 16.7
2020-Oct-01 06:27 16.7
2020-Oct-01 06:22 16.7
2020-Oct-01 06:17 16.7
2020-Oct-01 06:12 16.7
2020-Oct-01 06:07 16.7
2020-Oct-01 06:02 16.7
2020-Oct-01 05:57 16.7
2020-Oct-01 05:52 16.7
2020-Oct-01 05:47 090 16.7
2020-Oct-01 05:36 16.7
2020-Oct-01 05:31 16.7
2020-Oct-01 05:26 17.2
2020-Oct-01 05:22 108 17.2
2020-Oct-01 05:17 17.2
2020-Oct-01 05:12 17.2
2020-Oct-01 05:06 17.2
2020-Oct-01 05:01 17.2
2020-Oct-01 04:56 17.2
2020-Oct-01 04:51 310 17.2
2020-Oct-01 04:46 17.2
2020-Oct-01 04:41 17.2
2020-Oct-01 04:36 17.2
2020-Oct-01 04:31 17.2
2020-Oct-01 04:26 17.8
2020-Oct-01 04:21 17.2
2020-Oct-01 04:16 17.8
2020-Oct-01 04:14 17.8
2020-Oct-01 04:06 17.8
2020-Oct-01 04:01 17.8
2020-Oct-01 03:56 17.8
2020-Oct-01 03:51 17.8
2020-Oct-01 03:46 17.8
2020-Oct-01 03:41 17.8
2020-Oct-01 03:36 18.3
2020-Oct-01 03:31 18.3
2020-Oct-01 03:26 18.3
2020-Oct-01 03:21 18.3
2020-Oct-01 03:16 18.3
2020-Oct-01 03:11 18.3
2020-Oct-01 03:06 18.9
2020-Oct-01 03:01 18.9
2020-Oct-01 02:56 18.9
2020-Oct-01 02:51 346 18.9
2020-Oct-01 02:46 19.4
2020-Oct-01 02:41 19.4
2020-Oct-01 02:36 19.4
2020-Oct-01 02:31 19.4
2020-Oct-01 02:26 19.4
2020-Oct-01 02:21 20.0
2020-Oct-01 02:16 20.0
2020-Oct-01 02:11 20.0
2020-Oct-01 02:06 20.0
2020-Oct-01 02:01 20.0
2020-Oct-01 01:56 20.6
2020-Oct-01 01:51 20.6
2020-Oct-01 01:46 20.6
2020-Oct-01 01:41 188 21.1
2020-Oct-01 01:36 21.1
2020-Oct-01 01:31 21.1
2020-Oct-01 01:26 138 0 gusting 2 21.1
2020-Oct-01 01:21 167 0 gusting 2 21.1
2020-Oct-01 01:16 141 0 gusting 2 21.7
2020-Oct-01 01:11 21.7
2020-Oct-01 01:06 152 0 gusting 4 21.7
2020-Oct-01 01:01 21.7
2020-Oct-01 00:56 173 0 gusting 3 21.7
2020-Oct-01 00:51 094 0 gusting 3 21.7
2020-Oct-01 00:46 146 0 gusting 2 21.7
2020-Oct-01 00:41 172 0 gusting 2 21.7
2020-Oct-01 00:36 112 0 gusting 3 21.7
2020-Oct-01 00:31 175 1 gusting 3 22.2
2020-Oct-01 00:26 158 0 gusting 3 22.2
2020-Oct-01 00:21 150 0 gusting 4 22.2
2020-Oct-01 00:16 178 0 gusting 4 22.2
2020-Oct-01 00:11 22.2
2020-Oct-01 00:06 22.2
2020-Oct-01 00:01 22.8
2020-Sep-30 23:56 22.8
2020-Sep-30 23:51 22.8
2020-Sep-30 23:46 22.8
2020-Sep-30 23:41 23.3
2020-Sep-30 23:36 23.3
2020-Sep-30 23:31 23.3
2020-Sep-30 23:26 23.9
2020-Sep-30 23:21 23.9
2020-Sep-30 23:16 24.4
2020-Sep-30 23:11 316 0 gusting 2 24.4
2020-Sep-30 23:06 24.4
2020-Sep-30 23:01 25.0
2020-Sep-30 22:51 328 1 gusting 3 25.0
2020-Sep-30 22:46 25.6
2020-Sep-30 22:41 329 0 gusting 4 25.6
2020-Sep-30 22:36 25.6
2020-Sep-30 22:31 308 1 gusting 4 25.6
2020-Sep-30 22:26 325 1 gusting 4 25.6
2020-Sep-30 22:21 304 1 gusting 5 26.1
2020-Sep-30 22:16 358 1 gusting 5 26.1
2020-Sep-30 22:11 26.1
2020-Sep-30 22:06 107 1 gusting 5 26.7
2020-Sep-30 22:01 26.7
2020-Sep-30 21:56 352 2 gusting 5 26.7
2020-Sep-30 21:51 006 1 gusting 5 26.7
2020-Sep-30 21:46 336 1 gusting 6 27.2
2020-Sep-30 21:41 244 2 gusting 6 27.8
2020-Sep-30 21:35 323 2 gusting 6 27.8
2020-Sep-30 21:30 057 2 gusting 6 28.3
2020-Sep-30 21:25 28.3
2020-Sep-30 21:20 28.3
2020-Sep-30 21:15 267 3 gusting 7 28.3
2020-Sep-30 21:10 045 3 gusting 7 28.9
2020-Sep-30 21:06 073 2 gusting 7 28.9
2020-Sep-30 21:00 216 2 gusting 7 28.3
2020-Sep-30 20:55 28.3
2020-Sep-30 20:51 042 2 gusting 9 28.3
2020-Sep-30 20:45 327 1 gusting 5 28.3
2020-Sep-30 20:40 241 2 gusting 6 28.9
2020-Sep-30 20:35 289 1 gusting 6 28.3
2020-Sep-30 20:30 166 1 gusting 7 28.3
2020-Sep-30 20:25 088 2 gusting 7 28.9
2020-Sep-30 20:20 056 2 gusting 7 28.3
2020-Sep-30 20:15 160 2 gusting 7 28.3
2020-Sep-30 20:11 344 2 gusting 6 28.3
2020-Sep-30 20:05 350 2 gusting 6 29.4
2020-Sep-30 20:01 025 2 gusting 6 28.9
2020-Sep-30 19:55 329 2 gusting 6 28.9
2020-Sep-30 19:50 078 1 gusting 6 28.9
2020-Sep-30 19:45 303 1 gusting 6 28.9
2020-Sep-30 19:40 28.3
2020-Sep-30 19:35 299 2 gusting 7 28.9
2020-Sep-30 19:30 311 3 gusting 8 28.9
2020-Sep-30 19:25 339 2 gusting 8 28.3
2020-Sep-30 19:20 291 1 gusting 6 28.3
2020-Sep-30 19:15 28.3
2020-Sep-30 19:10 340 2 gusting 7 27.8
2020-Sep-30 19:05 021 2 gusting 8 27.8
2020-Sep-30 19:00 27.8
2020-Sep-30 18:55 048 3 gusting 8 28.3
2020-Sep-30 18:50 052 2 gusting 7 27.8
2020-Sep-30 18:45 264 2 gusting 6 27.8
2020-Sep-30 18:40 057 2 gusting 6 28.3
2020-Sep-30 18:35 309 3 gusting 9 28.3
2020-Sep-30 18:30 281 3 gusting 10 27.8
2020-Sep-30 18:25 064 2 gusting 10 27.8
2020-Sep-30 18:20 27.8
2020-Sep-30 18:15 007 2 gusting 7 27.8
2020-Sep-30 18:10 27.8
2020-Sep-30 18:05 358 2 gusting 8 27.2
2020-Sep-30 18:00 054 2 gusting 8 27.2
2020-Sep-30 17:55 27.8
2020-Sep-30 17:50 095 1 gusting 6 27.2
2020-Sep-30 17:45 030 2 gusting 7 27.8
2020-Sep-30 17:40 326 2 gusting 7 27.8
2020-Sep-30 17:35 047 1 gusting 6 27.8
2020-Sep-30 17:30 085 2 gusting 6 27.2
2020-Sep-30 17:25 026 3 gusting 7 27.2
2020-Sep-30 17:20 041 3 gusting 7 27.2
2020-Sep-30 17:15 282 3 gusting 6 27.2
2020-Sep-30 17:10 341 3 gusting 6 26.7
2020-Sep-30 17:05 309 2 gusting 7 26.7
2020-Sep-30 17:00 015 1 gusting 7 26.1
2020-Sep-30 16:55 074 3 gusting 7 26.1
2020-Sep-30 16:50 086 2 gusting 7 26.1
2020-Sep-30 16:45 336 2 gusting 7 26.1
2020-Sep-30 16:40 205 3 gusting 8 25.6
2020-Sep-30 16:35 065 3 gusting 8 25.6
2020-Sep-30 16:30 358 3 gusting 8 25.6
2020-Sep-30 16:25 308 4 gusting 9 25.6
2020-Sep-30 16:20 086 3 gusting 9 25.0
2020-Sep-30 16:15 047 3 gusting 7 25.0
2020-Sep-30 16:10 135 3 gusting 8 25.0
2020-Sep-30 16:05 237 3 gusting 8 25.0
2020-Sep-30 16:00 060 3 gusting 8 25.0
2020-Sep-30 15:55 051 3 gusting 9 25.0
2020-Sep-30 15:50 180 3 gusting 9 24.4
2020-Sep-30 15:45 057 4 gusting 10 24.4
2020-Sep-30 15:40 054 4 gusting 10 24.4
2020-Sep-30 15:35 051 3 gusting 9 24.4
2020-Sep-30 15:30 035 3 gusting 9 23.9
2020-Sep-30 15:25 047 3 gusting 8 23.9
2020-Sep-30 15:20 021 4 gusting 8 23.3
2020-Sep-30 15:15 358 4 gusting 8 23.3
2020-Sep-30 15:10 053 4 gusting 9 23.3
2020-Sep-30 15:05 060 4 gusting 9 22.8
2020-Sep-30 15:00 018 4 gusting 8 22.8
2020-Sep-30 14:55 083 4 gusting 11 22.2
2020-Sep-30 14:50 223 4 gusting 13 22.2
2020-Sep-30 14:45 044 4 gusting 13 21.7
2020-Sep-30 14:40 061 5 gusting 11 21.7
2020-Sep-30 14:35 059 4 gusting 9 21.7
2020-Sep-30 14:30 033 3 gusting 9 21.1
2020-Sep-30 14:25 042 4 gusting 9 20.6
2020-Sep-30 14:20 120 4 gusting 11 20.6
2020-Sep-30 14:15 069 4 gusting 11 20.6
2020-Sep-30 14:10 057 4 gusting 12 20.6
2020-Sep-30 14:05 059 4 gusting 12 20.6
2020-Sep-30 14:00 339 4 gusting 9 20.0
2020-Sep-30 13:55 054 4 gusting 10 20.0
2020-Sep-30 13:50 019 4 gusting 11 19.4
2020-Sep-30 13:45 292 5 gusting 12 19.4
2020-Sep-30 13:40 037 4 gusting 12 18.9
2020-Sep-30 13:35 043 3 gusting 8 18.9
2020-Sep-30 13:30 321 3 gusting 9 18.3
2020-Sep-30 13:25 068 3 gusting 9 17.8
2020-Sep-30 13:20 026 2 gusting 6 17.2
2020-Sep-30 13:10 021 2 gusting 8 16.7
2020-Sep-30 13:05 331 2 gusting 6 16.7
2020-Sep-30 12:55 080 2 gusting 7 16.7
2020-Sep-30 12:50 295 2 gusting 7 16.7
2020-Sep-30 12:45 269 2 gusting 7 16.7
2020-Sep-30 12:40 047 3 gusting 9 16.7
2020-Sep-30 12:30 006 2 gusting 7 16.7
2020-Sep-30 12:25 069 2 gusting 8 16.7
2020-Sep-30 12:15 338 2 gusting 7 16.7
2020-Sep-30 12:05 050 1 gusting 6 16.1
2020-Sep-30 11:55 352 1 gusting 3 16.1
2020-Sep-30 11:45 337 0 gusting 3 15.6
2020-Sep-30 11:35 15.6
2020-Sep-30 11:25 345 1 gusting 4 15.6
2020-Sep-30 11:20 15.6
2020-Sep-30 11:15 054 1 gusting 6 15.6
2020-Sep-30 11:10 299 1 gusting 6 15.6
2020-Sep-30 11:05 056 1 gusting 5 16.1
2020-Sep-30 10:55 004 1 gusting 4 16.1
2020-Sep-30 10:50 328 1 gusting 4 16.1
2020-Sep-30 10:45 16.1
2020-Sep-30 10:40 308 1 gusting 4 16.1
2020-Sep-30 10:35 303 1 gusting 5 16.1
2020-Sep-30 10:30 353 1 gusting 5 16.1
2020-Sep-30 10:25 035 1 gusting 5 16.1
2020-Sep-30 10:20 312 1 gusting 5 16.1
2020-Sep-30 10:15 056 1 gusting 6 16.1
2020-Sep-30 10:10 311 1 gusting 6 16.1
2020-Sep-30 10:05 091 1 gusting 5 16.1
2020-Sep-30 10:00 323 1 gusting 5 16.1
2020-Sep-30 09:50 329 1 gusting 4 16.1
2020-Sep-30 09:45 005 1 gusting 3 16.1
2020-Sep-30 09:40 16.1
2020-Sep-30 09:34 347 1 gusting 4 16.1
2020-Sep-30 09:30 16.1
2020-Sep-30 09:24 054 1 gusting 5 16.1
2020-Sep-30 09:19 038 1 gusting 5 16.1
2020-Sep-30 09:14 017 1 gusting 5 16.1
2020-Sep-30 09:09 006 1 gusting 5 16.1
2020-Sep-30 09:04 340 1 gusting 5 16.1
2020-Sep-30 08:59 040 1 gusting 6 16.1
2020-Sep-30 08:54 307 1 gusting 6 16.1
2020-Sep-30 08:49 055 1 gusting 4 16.1
2020-Sep-30 08:44 314 2 gusting 5 16.1
2020-Sep-30 08:39 017 2 gusting 5 16.7
2020-Sep-30 08:34 356 1 gusting 6 16.1
2020-Sep-30 08:29 047 1 gusting 6 16.7
2020-Sep-30 08:24 064 1 gusting 5 16.1
2020-Sep-30 08:19 311 1 gusting 5 16.7
2020-Sep-30 08:14 16.7
2020-Sep-30 08:09 060 2 gusting 6 16.7
2020-Sep-30 08:04 046 1 gusting 6 16.7
2020-Sep-30 07:59 355 1 gusting 6 16.7
2020-Sep-30 07:54 038 1 gusting 6 16.7
2020-Sep-30 07:49 326 1 gusting 5 16.7
2020-Sep-30 07:44 16.7
2020-Sep-30 07:39 033 1 gusting 5 16.7
2020-Sep-30 07:34 034 2 gusting 6 16.7
2020-Sep-30 07:29 311 2 gusting 6 16.7
2020-Sep-30 07:24 018 2 gusting 6 16.7
2020-Sep-30 07:19 072 1 gusting 5 16.7
2020-Sep-30 07:14 16.7
2020-Sep-30 07:09 014 2 gusting 6 16.7
2020-Sep-30 07:04 340 2 gusting 6 16.7
2020-Sep-30 06:59 338 2 gusting 5 16.7
2020-Sep-30 06:54 346 2 gusting 6 16.7
2020-Sep-30 06:49 335 2 gusting 6 17.2
2020-Sep-30 06:44 338 2 gusting 6 17.2
2020-Sep-30 06:39 046 2 gusting 6 17.2
2020-Sep-30 06:34 344 1 gusting 7 17.2
2020-Sep-30 06:29 318 2 gusting 7 17.2
2020-Sep-30 06:24 330 1 gusting 6 17.2
2020-Sep-30 06:19 298 1 gusting 6 17.2
2020-Sep-30 06:14 355 2 gusting 9 17.2
2020-Sep-30 06:09 305 2 gusting 9 17.2
2020-Sep-30 06:04 320 1 gusting 5 17.2
2020-Sep-30 05:59 035 1 gusting 5 17.2
2020-Sep-30 05:54 067 1 gusting 5 17.2
2020-Sep-30 05:49 312 0 gusting 4 17.2
2020-Sep-30 05:44 344 1 gusting 4 17.2
2020-Sep-30 05:39 279 0 gusting 3 17.2
2020-Sep-30 05:34 17.2
2020-Sep-30 05:29 349 1 gusting 4 17.2
2020-Sep-30 05:24 323 1 gusting 4 17.2
2020-Sep-30 05:19 17.2
2020-Sep-30 05:14 311 1 gusting 4 17.2
2020-Sep-30 05:09 329 1 gusting 5 17.2
2020-Sep-30 05:04 016 1 gusting 5 17.2
2020-Sep-30 04:59 320 1 gusting 4 17.2
2020-Sep-30 04:54 022 1 gusting 6 17.2
2020-Sep-30 04:49 062 1 gusting 6 17.2
2020-Sep-30 04:44 141 2 gusting 6 17.2
2020-Sep-30 04:39 324 2 gusting 6 17.2
2020-Sep-30 04:34 053 1 gusting 6 17.2
2020-Sep-30 04:29 040 1 gusting 6 17.2
2020-Sep-30 04:24 095 1 gusting 6 17.2
2020-Sep-30 04:19 314 2 gusting 6 17.2
2020-Sep-30 04:14 012 2 gusting 6 17.2
2020-Sep-30 04:09 042 2 gusting 7 17.2
2020-Sep-30 04:04 295 2 gusting 7 17.2
2020-Sep-30 03:59 356 2 gusting 7 17.2
2020-Sep-30 03:54 020 2 gusting 7 17.8
2020-Sep-30 03:49 034 2 gusting 6 17.8
2020-Sep-30 03:44 328 1 gusting 6 17.2
2020-Sep-30 03:39 053 2 gusting 8 17.8
2020-Sep-30 03:34 036 3 gusting 9 17.8
2020-Sep-30 03:29 006 2 gusting 9 17.8
2020-Sep-30 03:24 330 2 gusting 6 17.8
2020-Sep-30 03:19 17.8
2020-Sep-30 03:14 003 3 gusting 8 17.8
2020-Sep-30 03:09 031 2 gusting 7 17.8
2020-Sep-30 03:04 319 2 gusting 6 17.8
2020-Sep-30 02:59 305 1 gusting 6 17.8
2020-Sep-30 02:54 359 2 gusting 6 17.8
2020-Sep-30 02:49 023 2 gusting 6 17.8
2020-Sep-30 02:44 342 1 gusting 6 17.8
2020-Sep-30 02:39 241 2 gusting 6 17.8
2020-Sep-30 02:34 019 2 gusting 6 17.8
2020-Sep-30 02:29 278 2 gusting 6 17.8
2020-Sep-30 02:24 080 2 gusting 6 17.8
2020-Sep-30 02:19 347 2 gusting 6 17.8
2020-Sep-30 02:14 334 2 gusting 6 17.8
2020-Sep-30 02:09 324 1 gusting 6 17.8
2020-Sep-30 02:04 17.8
2020-Sep-30 01:59 322 1 gusting 6 17.8
2020-Sep-30 01:54 012 1 gusting 6 17.8
2020-Sep-30 01:49 355 2 gusting 6 17.8
2020-Sep-30 01:44 144 2 gusting 6 17.8
2020-Sep-30 01:39 021 1 gusting 5 17.8
2020-Sep-30 01:34 028 1 gusting 5 17.8
2020-Sep-30 01:29 038 1 gusting 6 17.8
2020-Sep-30 01:24 104 1 gusting 6 17.8
2020-Sep-30 01:19 313 2 gusting 6 17.8
2020-Sep-30 01:14 012 2 gusting 6 17.8
2020-Sep-30 01:09 058 2 gusting 5 17.8
2020-Sep-30 01:04 327 2 gusting 6 17.8
2020-Sep-30 00:59 291 2 gusting 6 17.8
2020-Sep-30 00:54 014 2 gusting 6 17.8
2020-Sep-30 00:49 351 2 gusting 6 18.3
2020-Sep-30 00:44 316 2 gusting 6 18.3
2020-Sep-30 00:39 070 1 gusting 5 18.3
2020-Sep-30 00:34 343 1 gusting 5 18.3
2020-Sep-30 00:29 341 1 gusting 5 18.3
2020-Sep-30 00:24 267 1 gusting 4 18.3
2020-Sep-30 00:19 009 1 gusting 4 18.3
2020-Sep-30 00:14 016 1 gusting 4 18.3
2020-Sep-30 00:09 284 1 gusting 4 18.3
2020-Sep-30 00:04 329 1 gusting 6 18.3
2020-Sep-29 23:59 309 2 gusting 8 18.3
2020-Sep-29 23:54 323 2 gusting 8 18.3
2020-Sep-29 23:48 319 2 gusting 9 18.9
2020-Sep-29 23:43 058 3 gusting 9 18.9
2020-Sep-29 23:38 289 3 gusting 9 18.9
2020-Sep-29 23:33 325 3 gusting 9 18.9
2020-Sep-29 23:28 317 3 gusting 9 19.4
2020-Sep-29 23:23 19.4
2020-Sep-29 23:18 013 3 gusting 8 19.4
2020-Sep-29 23:14 348 4 gusting 11 19.4
2020-Sep-29 23:08 344 4 gusting 12 20.0
2020-Sep-29 23:03 341 4 gusting 12 20.0
2020-Sep-29 22:58 311 4 gusting 12 20.0
2020-Sep-29 22:53 021 5 gusting 13 20.6
2020-Sep-29 22:48 051 5 gusting 13 20.6
2020-Sep-29 22:43 026 5 gusting 11 21.1
2020-Sep-29 22:38 022 4 gusting 11 21.1
2020-Sep-29 22:33 060 4 gusting 9 21.7
2020-Sep-29 22:28 009 4 gusting 11 21.7
2020-Sep-29 22:23 012 5 gusting 13 22.2
2020-Sep-29 22:18 341 5 gusting 13 22.8
2020-Sep-29 22:13 011 5 gusting 14 23.9
2020-Sep-29 22:08 332 6 gusting 26 25.0
2020-Sep-29 22:03 319 3 gusting 26 27.2
2020-Sep-29 21:58 347 2 gusting 7 27.2
2020-Sep-29 21:53 300 3 gusting 7 27.2
2020-Sep-29 21:48 269 2 gusting 6 27.8
2020-Sep-29 21:43 317 2 gusting 7 27.8
2020-Sep-29 21:38 321 3 gusting 10 27.8
2020-Sep-29 21:33 286 3 gusting 11 28.3
2020-Sep-29 21:28 332 4 gusting 11 28.3
2020-Sep-29 21:23 289 4 gusting 9 28.9
2020-Sep-29 21:18 296 4 gusting 10 28.9
2020-Sep-29 21:13 305 3 gusting 10 28.9
2020-Sep-29 21:08 329 4 gusting 9 28.9
2020-Sep-29 21:03 259 4 gusting 9 28.9
2020-Sep-29 20:58 211 3 gusting 9 28.9
2020-Sep-29 20:53 293 4 gusting 11 28.9
2020-Sep-29 20:48 294 4 gusting 11 28.9
2020-Sep-29 20:43 295 4 gusting 10 29.4
2020-Sep-29 20:38 308 4 gusting 13 29.4
2020-Sep-29 20:33 224 4 gusting 13 29.4
2020-Sep-29 20:28 258 5 gusting 13 29.4
2020-Sep-29 20:23 286 5 gusting 17 29.4
2020-Sep-29 20:18 299 6 gusting 17 29.4
2020-Sep-29 20:13 318 5 gusting 13 30.0
2020-Sep-29 20:08 264 4 gusting 9 30.0
2020-Sep-29 20:03 278 4 gusting 9 30.0
2020-Sep-29 19:58 277 4 gusting 9 30.0
2020-Sep-29 19:53 305 4 gusting 9 30.0
2020-Sep-29 19:48 258 3 gusting 12 30.0
2020-Sep-29 19:43 303 4 gusting 12 30.6
2020-Sep-29 19:38 269 4 gusting 9 30.0
2020-Sep-29 19:33 298 4 gusting 9 29.4
2020-Sep-29 19:28 301 3 gusting 8 29.4
2020-Sep-29 19:23 249 3 gusting 9 29.4
2020-Sep-29 19:18 236 3 gusting 10 29.4
2020-Sep-29 19:13 341 4 gusting 11 30.0
2020-Sep-29 19:08 332 3 gusting 11 30.6
2020-Sep-29 19:03 277 3 gusting 11 31.7
2020-Sep-29 18:58 324 5 gusting 11 31.7
2020-Sep-29 18:53 190 5 gusting 15 32.2
2020-Sep-29 18:48 318 4 gusting 15 32.2
2020-Sep-29 18:43 010 4 gusting 11 31.7
2020-Sep-29 18:38 294 4 gusting 11 31.7
2020-Sep-29 18:33 32.2
2020-Sep-29 18:28 274 2 gusting 8 31.7
2020-Sep-29 18:23 242 2 gusting 8 31.7
2020-Sep-29 18:18 221 3 gusting 8 31.1
2020-Sep-29 18:13 242 3 gusting 9 31.1
2020-Sep-29 18:08 213 3 gusting 9 31.7
2020-Sep-29 18:03 247 3 gusting 8 31.7
2020-Sep-29 17:58 226 3 gusting 8 31.1
2020-Sep-29 17:53 262 3 gusting 9 31.1
2020-Sep-29 17:48 207 3 gusting 9 30.6
2020-Sep-29 17:43 312 3 gusting 8 30.6
2020-Sep-29 17:38 212 3 gusting 8 30.0
2020-Sep-29 17:33 225 3 gusting 8 30.0
2020-Sep-29 17:28 015 3 gusting 7 30.0
2020-Sep-29 17:23 273 3 gusting 8 29.4
2020-Sep-29 17:18 309 2 gusting 8 29.4
2020-Sep-29 17:13 285 2 gusting 7 28.9
2020-Sep-29 17:08 209 2 gusting 7 28.9
2020-Sep-29 17:03 333 2 gusting 7 28.9